Home   Weather   Lillestrøm   Past weeks
Flag for Norway

Past Weather in Lillestrøm, Norway — Yesterday and Last 2 Weeks

Now
39 °F

Chilly.


Feels Like: 39 °F
Forecast: 44 / 35 °F
Wind: 1 mph from North

Location: Oslo-Blindern

Current Time: Jan 21, 2020 at 12:48:04 am

Latest Report: Jan 21, 2020 at 12:00 am


Visibility: 31 mi

Pressure: 30.15 "Hg

Humidity: 92%

Dew Point: 37 °F

Location of LillestrømLocation

Past Weather in Lillestrøm — Graph

°F

Lillestrøm Temperature Yesterday

Maximum temperature yesterday: 45 °F (at 2:00 pm)
Minimum temperature yesterday: 32 °F (at 12:00 am)
Average temperature yesterday: 38 °F

High & Low Weather Summary for the Past Weeks

 TemperatureHumidityPressure
High47 °F (Jan 8, 5:00 am)100% (Jan 6, 2:00 am)30.56 "Hg (Jan 6, 2:00 am)
Low22 °F (Jan 11, 12:00 am)46% (Jan 19, 2:00 pm)28.94 "Hg (Jan 15, 3:00 am)
Average38 °F87%29.75 "Hg
* Reported Jan 5 11:00 pm — Jan 20 11:00 pm, Lillestrøm. Weather by CustomWeather, © 2020

Note: Actual official high and low records may vary slightly from our data, if they occured in-between our weather recording intervals... More about our weather records

Lillestrøm Weather History for the Previous 24 Hours

Scroll right to see more
 ConditionsComfort  
Time TempWeatherWind HumidityBarometerVisibility
11:00 pm
Mon, Jan 20
41 °FQuite cool.1 mph92%30.17 "Hg31 mi
10:00 pm40 °FPassing clouds.1 mph92%30.19 "Hg40 mi
9:00 pm40 °FQuite cool.1 mph90%30.23 "Hg28 mi
8:00 pm39 °FChilly.1 mph90%30.26 "Hg15 mi
7:00 pm40 °FPassing clouds.No wind88%30.27 "Hg34 mi
6:00 pm40 °FChilly.1 mph86%30.30 "Hg28 mi
5:00 pm41 °FQuite cool.1 mph80%30.31 "Hg28 mi
4:00 pm42 °FPassing clouds.3 mph78%30.31 "Hg40 mi
3:00 pm44 °FQuite cool.1 mph72%30.34 "Hg31 mi
2:00 pm45 °FCool.2 mph65%30.35 "HgN/A
1:00 pm44 °FPartly sunny.2 mph67%30.38 "Hg40 mi
12:00 pm40 °FQuite cool.2 mph74%30.39 "Hg31 mi
11:00 am38 °FChilly.1 mph79%30.40 "Hg31 mi
10:00 am38 °FOvercast.2 mph76%30.40 "Hg40 mi
9:00 am38 °FChilly.2 mph76%30.40 "Hg31 mi
8:00 am38 °FChilly.1 mph74%30.41 "Hg28 mi
7:00 am37 °FOvercast.2 mph75%30.41 "Hg47 mi
6:00 am36 °FChilly.1 mph73%30.42 "Hg31 mi
5:00 am35 °FChilly.1 mph73%30.42 "Hg31 mi
4:00 am33 °FChilly.1 mph77%30.46 "Hg22 mi
3:00 am33 °FChilly.1 mph76%30.48 "Hg19 mi
2:00 am33 °FChilly.1 mph75%30.50 "Hg22 mi
1:00 am32 °FRain showers. Overcast.1 mph84%30.51 "Hg13 mi
12:00 am32 °FChilly.No wind82%30.54 "Hg22 mi
Weather by CustomWeather, © 2020

See weather overview

Advertising